#timestamp,LO_Frequency,Hit 
1499068815.9,286046991.6,N
1499068835.7,286046989.7,N
1499068855.5,286046989.6,N
1499068875.3,286046988.8,N
1499068895.2,286046989.6,N
1499068915.0,286046988.9,N
1499068915.9,286046988.9,N
1499068935.7,286046988.7,N
1499068955.6,286046986.9,N
1499068975.4,286046987.0,N
1499068995.2,286046985.5,N
1499069015.1,286046984.6,N
1499069016.0,286046984.6,N
1499069035.8,286046984.7,N
1499069055.6,286046984.8,N
1499069075.5,286046984.2,N
1499069095.3,286046986.7,N
1499069115.1,286046984.2,N
1499069135.9,286046984.7,N
1499069155.7,286046982.3,N
1499069175.5,286046985.1,N
1499069195.4,286046985.2,N
1499069215.2,286046982.1,N
1499069235.0,286046983.1,N
1499069235.9,286046983.1,N
1499069255.8,286046982.2,N
1499069275.6,286046982.2,N
1499069295.4,286046982.5,N
1499069315.2,286046979.8,N
1499069335.1,286046981.2,N
1499069336.0,286046981.2,N
1499069355.8,286046984.9,N
1499069375.6,286046980.8,N
1499069395.5,286046977.4,N
1499069415.3,286046979.5,N
1499069435.1,286046978.9,N
1499069455.9,286046981.7,N
1499069475.7,286046982.0,N
1499069495.5,286046980.3,N
1499069515.4,286046978.6,N
1499069535.2,286046974.1,N
1499069555.0,286046976.5,N
1499069555.9,286046976.5,N
1499069575.8,286046975.7,N
1499069595.6,286046974.7,N
1499069615.4,286046974.1,N
1499069635.3,286046974.3,N
1499069655.1,286046977.0,N
1499069656.0,286046977.0,N
1499069675.8,286046978.6,N
1499069695.6,286046976.1,N
1499069715.5,286046977.1,N
1499069735.3,286046974.2,N
1499069755.1,286046976.9,N
1499069775.9,286046976.2,N
1499069795.7,286046974.5,N
1499069815.5,286046975.1,N
1499069835.4,286046974.1,N
1499069855.2,286046974.2,N
1499069875.0,286046975.5,N
1499069875.9,286046975.5,N
1499069895.8,286046973.7,N
1499069915.6,286046973.2,N
1499069935.4,286046972.8,N
1499069955.3,286046970.2,N
1499069975.1,286046968.7,N
1499069976.0,286046968.7,N
1499069995.8,286046970.8,N
1499070015.7,286046968.1,N
1499070035.5,286046968.4,N
1499070055.3,286046967.8,N
1499070075.1,286046970.0,N
1499070095.9,286046970.3,N
1499070115.7,286046973.7,N
1499070135.5,286046971.0,N
1499070155.4,286046971.7,N
1499070175.2,286046966.1,N
1499070195.0,286046969.1,N
1499070195.9,286046969.1,N
1499070215.8,286046972.0,N
1499070235.6,286046969.5,N
1499070255.4,286046970.8,N
1499070275.3,286046968.5,N
1499070295.1,286046964.7,N
1499070296.0,286046964.7,N
1499070315.8,286046964.9,N
1499070335.7,286046964.7,N
1499070355.5,286046969.1,N
1499070375.3,286046966.4,N
1499070395.2,286046966.9,N
1499070415.9,286046967.1,N
1499070435.7,286046966.1,N
1499070455.6,286046966.8,N
1499070475.4,286046968.4,N
1499070495.2,286046966.4,N
1499070515.0,286046966.8,N
1499070515.9,286046966.8,N
1499070535.8,286046964.7,N
1499070555.6,286046965.8,N
1499070575.4,286046965.1,N
1499070595.3,286046965.9,N
1499070615.1,286046966.3,N
1499070635.8,286046966.9,N
1499070655.7,286046964.6,N
1499070675.5,286046965.9,N
1499070695.3,286046963.0,N
1499070715.2,286046965.6,N
1499070735.9,286046965.3,N
1499070755.7,286046963.3,N
1499070775.6,286046961.4,N
1499070795.4,286046964.3,N
1499070815.2,286046961.4,N
1499070835.0,286046962.0,N
1499070836.0,286046962.0,N
1499070855.8,286046963.0,N
1499070875.6,286046964.0,N
1499070895.4,286046960.1,N
1499070915.3,286046959.6,N
1499070935.1,286046962.8,N
1499070955.8,286046964.0,N
1499070975.7,286046963.3,N
1499070995.5,286046961.8,N
1499071015.3,286046962.3,N
1499071035.2,286046961.0,N
1499071055.9,286046962.4,N
1499071075.7,286046961.5,N
1499071095.6,286046959.7,N
1499071115.4,286046959.8,N
1499071135.2,286046959.7,N
1499071155.1,286046959.3,N
1499071156.0,286046959.3,N
1499071175.8,286046959.2,N
1499071195.6,286046959.4,N
1499071215.5,286046961.2,N
1499071235.3,286046962.6,N
1499071255.1,286046961.6,N
1499071275.8,286046959.8,N
1499071295.7,286046961.0,N
1499071315.5,286046960.3,N
1499071335.3,286046959.7,N
1499071355.2,286046959.7,N
1499071375.0,286046959.8,N
1499071375.9,286046959.8,N
1499071395.7,286046959.7,N
1499071415.6,286046962.7,N
1499071435.4,286046960.8,N
1499071455.2,286046958.1,N
1499071475.1,286046961.0,N
1499071476.0,286046961.0,N
1499071495.8,286046960.2,N
1499071515.6,286046960.2,N
1499071535.5,286046961.5,N
1499071555.3,286046961.6,N
1499071575.1,286046960.4,N
1499071595.8,286046961.2,N
1499071615.7,286046958.9,N
1499071635.5,286046959.3,N
1499071655.3,286046961.0,N
1499071675.2,286046959.0,N
1499071695.0,286046959.5,N
1499071695.9,286046959.5,N
1499071715.7,286046957.8,N
1499071735.6,286046956.7,N
1499071755.4,286046955.8,N
1499071775.2,286046954.6,N
1499071795.1,286046955.0,N
1499071796.0,286046955.0,N
1499071815.8,286046957.1,N
1499071835.6,286046956.6,N
1499071855.5,286046958.5,N
1499071875.3,286046960.8,N
1499071895.1,286046957.0,N
1499071915.9,286046956.9,N
1499071935.7,286046958.9,N
1499071955.5,286046960.5,N
1499071975.4,286046959.4,N
1499071995.2,286046959.5,N
1499072015.0,286046957.8,N
1499072015.9,286046957.8,N
1499072035.8,286046953.6,N
1499072055.6,286046958.0,N
1499072075.4,286046958.0,N
1499072095.2,286046957.1,N
1499072115.1,286046956.5,N
1499072116.0,286046956.5,N
1499072135.8,286046956.9,N
1499072155.6,286046959.1,N
1499072175.5,286046961.2,N
1499072195.3,286046958.4,N
1499072215.1,286046958.8,N
1499072235.9,286046960.2,N
1499072255.7,286046958.6,N
1499072275.5,286046959.0,N
1499072295.4,286046959.0,N
1499072315.2,286046958.6,N
1499072335.0,286046958.5,N
1499072335.9,286046958.5,N
1499072355.8,286046960.2,N
1499072375.6,286046959.5,N
1499072395.4,286046959.5,N
